1998-067TY

Last updated on Thu Jul 28 2022 00:02:05 GMT+0000 (Coordinated Universal Time)

1 53313U 98067TY 22206.80479155 .00014065 00000+0 24864-3 0 9998 2 53313 51.6415 145.2978 0004901 57.9795 302.1527 15.50598944 708
UTC large
Height (km)
Speed (km/s)
/
Latitude / Longitude
Inclination (degrees)
Orbital Period (minutes)
Azimuth
Elevation
Range (km)
Doppler Factor

Next 0 passes for location: London (51.5072 / 0.1276)

Sorry there are no passes over London.